Weather History for KROX - August, 2013

Change the Weather History Date:

Wednesday, August 14, 2013

  Actual Average Record
Temperature  
Mean Temperature 58 °F -  
Max Temperature 75 °F 76 °F 94 °F (1952)
Min Temperature 42 °F 50 °F 32 °F (1979)
Degree Days  
Heating Degree Days 6    
Growing Degree Days 8 (Base 50)    
Moisture  
Dew Point 47 °F    
Average Humidity 66    
Maximum Humidity 88    
Minimum Humidity 38    
Precipitation  
Precipitation 0.00 in - - ()
Sea Level Pressure  
Sea Level Pressure 30.14 in    
Wind  
Wind Speed 2 mph (West)    
Max Wind Speed 9 mph    
Max Gust Speed -    
Visibility 10 miles    
Events      
Averages and records for this station are not official NWS values.
T = Trace of Precipitation, MM = Missing Value Source: NWS Daily Summary

Daily Weather History Graph

Daily Weather History Graph

Search for Another Location

Airport or City:

Trip Planner

Search our weather history database for the weather conditions in past years. The results will help you decide how hot, cold, wet, or windy it might be!

Date:

Astronomy

Aug. 14, 2013 Rise Set
Actual Time 6:14 AM CDT 8:39 PM CDT
Civil Twilight 5:39 AM CDT 9:14 PM CDT
Nautical Twilight 4:55 AM CDT 9:58 PM CDT
Astronomical Twilight 4:04 AM CDT 10:48 PM CDT
Moon 2:59 PM CDT (8/14) No Moon Set
Length of Visible Light 15h 34m
Length of Day
14h 24m
First Quarter, 53% of the Moon is Illuminated
Aug 14
First Quarter
Aug 20
Full
Aug 28
Last Quarter
Sep 5
New
Sep 12
First Quarter

Hourly Weather History & Observations

Time (CDT) Temp. Windchill Dew Point Humidity Pressure Visibility Wind Dir Wind Speed Gust Speed Precip Events Conditions
12:14 AM 48.2 °F - 44.6 °F 87% 30.18 in 10.0 mi Calm Calm - N/A   Clear
12:34 AM 48.2 °F - 44.6 °F 87% 30.18 in 10.0 mi ENE 3.5 mph - N/A   Clear
12:54 AM 48.2 °F - 42.8 °F 82% 30.18 in 10.0 mi Calm Calm - N/A   Clear
1:14 AM 46.4 °F - 42.8 °F 87% 30.18 in 10.0 mi Calm Calm - N/A   Clear
1:34 AM 48.2 °F - 42.8 °F 82% 30.18 in 10.0 mi Calm Calm - N/A   Clear
1:54 AM 48.2 °F - 42.8 °F 82% 30.18 in 10.0 mi Calm Calm - N/A   Clear
2:14 AM 48.2 °F - 42.8 °F 82% 30.17 in 10.0 mi Calm Calm - N/A   Clear
2:35 AM 46.4 °F - 41.0 °F 81% 30.17 in 10.0 mi Calm Calm - N/A   Clear
2:54 AM 46.4 °F - 41.0 °F 81% 30.17 in 10.0 mi Calm Calm - N/A   Clear
3:14 AM 44.6 °F - 39.2 °F 81% 30.17 in 10.0 mi Calm Calm - N/A   Clear
3:35 AM 44.6 °F - 39.2 °F 81% 30.18 in 10.0 mi Calm Calm - N/A   Clear
3:54 AM 44.6 °F - 39.2 °F 81% 30.18 in 10.0 mi Calm Calm - N/A   Clear
4:14 AM 42.8 °F 41.1 °F 37.4 °F 81% 30.18 in 4.0 mi South 3.5 mph - N/A   Haze
4:35 AM 44.6 °F - 39.2 °F 81% 30.19 in 10.0 mi Calm Calm - N/A   Clear
4:54 AM 42.8 °F 41.1 °F 39.2 °F 87% 30.19 in 1.5 mi South 3.5 mph - N/A   Clear
5:14 AM 44.6 °F - 39.2 °F 81% 30.19 in 1.2 mi Calm Calm - N/A   Haze
5:35 AM 42.8 °F 40.1 °F 39.2 °F 87% 30.19 in 1.0 mi South 4.6 mph - N/A   Clear
5:54 AM 44.6 °F - 39.2 °F 81% 30.18 in 7.0 mi Calm Calm - N/A   Clear
6:14 AM 42.8 °F 41.1 °F 37.4 °F 81% 30.18 in 10.0 mi South 3.5 mph - N/A   Clear
6:35 AM 42.8 °F - 37.4 °F 81% 30.18 in 10.0 mi Calm Calm - N/A   Clear
6:54 AM 44.6 °F - 39.2 °F 81% 30.18 in 10.0 mi Calm Calm - N/A   Clear
7:14 AM 46.4 °F - 41.0 °F 81% 30.18 in 10.0 mi Calm Calm - N/A   Clear
7:35 AM 48.2 °F - 42.8 °F 82% 30.18 in 10.0 mi Calm Calm - N/A   Clear
7:54 AM 50.0 °F - 44.6 °F 82% 30.18 in 10.0 mi Calm Calm - N/A   Clear
8:14 AM 51.8 °F - 48.2 °F 88% 30.18 in 10.0 mi Calm Calm - N/A   Clear
8:35 AM 55.4 °F - 50.0 °F 82% 30.18 in 10.0 mi Calm Calm - N/A   Clear
8:54 AM 57.2 °F - 51.8 °F 82% 30.18 in 10.0 mi Calm Calm - N/A   Clear
9:14 AM 60.8 °F - 53.6 °F 77% 30.18 in 10.0 mi Calm Calm - N/A   Clear
9:35 AM 62.6 °F - 53.6 °F 72% 30.18 in 10.0 mi Calm Calm - N/A   Clear
9:54 AM 66.2 °F - 53.6 °F 64% 30.17 in 10.0 mi Calm Calm - N/A   Clear
10:14 AM 66.2 °F - 53.6 °F 64% 30.17 in 10.0 mi WNW 4.6 mph - N/A   Clear
10:34 AM 68.0 °F - 53.6 °F 60% 30.17 in 10.0 mi NW 4.6 mph - N/A   Clear
10:54 AM 69.8 °F - 51.8 °F 53% 30.17 in 10.0 mi West 4.6 mph - N/A   Clear
11:14 AM 69.8 °F - 50.0 °F 49% 30.16 in 10.0 mi West 4.6 mph - N/A   Clear
11:34 AM 71.6 °F - 50.0 °F 46% 30.16 in 10.0 mi Calm Calm - N/A   Clear
11:55 AM 69.8 °F - 48.2 °F 46% 30.16 in 10.0 mi Calm Calm - N/A   Clear
12:14 PM 71.6 °F - 48.2 °F 43% 30.15 in 10.0 mi WNW 4.6 mph - N/A   Clear
12:34 PM 71.6 °F - 50.0 °F 46% 30.15 in 10.0 mi West 3.5 mph - N/A   Clear
12:55 PM 71.6 °F - 48.2 °F 43% 30.14 in 10.0 mi SW 6.9 mph - N/A   Clear
1:14 PM 71.6 °F - 48.2 °F 43% 30.14 in 10.0 mi NW 3.5 mph - N/A   Clear
1:34 PM 71.6 °F - 48.2 °F 43% 30.13 in 10.0 mi WNW 5.8 mph - N/A   Clear
1:55 PM 71.6 °F - 50.0 °F 46% 30.13 in 10.0 mi NW 4.6 mph - N/A   Clear
2:55 PM 73.4 °F - 48.2 °F 41% 30.11 in 10.0 mi Calm Calm - N/A   Clear
3:14 PM 75.2 °F - 48.2 °F 38% 30.11 in 10.0 mi WSW 6.9 mph - N/A   Clear
3:34 PM 75.2 °F - 48.2 °F 38% 30.11 in 10.0 mi West 8.1 mph - N/A   Scattered Clouds
3:55 PM - - - N/A% 30.11 in 10.0 mi West 6.9 mph - N/A   Scattered Clouds
4:14 PM 75.2 °F - 50.0 °F 41% 30.11 in 10.0 mi West 4.6 mph - N/A   Clear
4:34 PM 73.4 °F - 51.8 °F 47% 30.10 in 10.0 mi West 3.5 mph - N/A   Scattered Clouds
4:55 PM 75.2 °F - 50.0 °F 41% 30.10 in 10.0 mi WNW 8.1 mph - N/A   Scattered Clouds
5:14 PM 75.2 °F - 48.2 °F 38% 30.10 in 10.0 mi WNW 8.1 mph - N/A   Clear
5:34 PM 73.4 °F - 48.2 °F 41% 30.09 in 10.0 mi West 9.2 mph - N/A   Clear
5:54 PM 73.4 °F - 48.2 °F 41% 30.09 in 10.0 mi West 5.8 mph - N/A   Clear
6:14 PM 73.4 °F - 48.2 °F 41% 30.09 in 10.0 mi WNW 5.8 mph - N/A   Clear
6:34 PM 73.4 °F - 50.0 °F 44% 30.09 in 10.0 mi NW 6.9 mph - N/A   Clear
6:54 PM 71.6 °F - 48.2 °F 43% 30.09 in 10.0 mi WNW 4.6 mph - N/A   Clear
7:14 PM 71.6 °F - 48.2 °F 43% 30.08 in 10.0 mi WNW 4.6 mph - N/A   Clear
7:34 PM 69.8 °F - 48.2 °F 46% 30.08 in 10.0 mi West 5.8 mph - N/A   Clear
7:50 PM 68.0 °F - 51.8 °F 56% 30.08 in 10.0 mi West 4.6 mph - N/A   Clear
8:05 PM 66.2 °F - 51.8 °F 60% 30.07 in 10.0 mi West 5.8 mph - N/A   Clear
8:34 PM 64.4 °F - 51.8 °F 64% 30.07 in 10.0 mi West 5.8 mph - N/A   Clear
8:54 PM 64.4 °F - 50.0 °F 59% 30.07 in 10.0 mi West 5.8 mph - N/A   Clear
9:14 PM 62.6 °F - 51.8 °F 68% 30.07 in 10.0 mi WNW 4.6 mph - N/A   Clear
9:34 PM 60.8 °F - 51.8 °F 72% 30.07 in 10.0 mi WNW 3.5 mph - N/A   Clear
9:54 PM 57.2 °F - 50.0 °F 77% 30.07 in 10.0 mi Calm Calm - N/A   Clear
10:14 PM 53.6 °F - 48.2 °F 82% 30.08 in 7.0 mi Calm Calm - N/A   Clear
10:34 PM 53.6 °F - 46.4 °F 77% 30.08 in 10.0 mi Calm Calm - N/A   Clear
10:54 PM 51.8 °F - 46.4 °F 82% 30.08 in 10.0 mi Calm Calm - N/A   Clear
11:14 PM 51.8 °F - 46.4 °F 82% 30.08 in 10.0 mi Calm Calm - N/A   Clear
11:34 PM 51.8 °F - 46.4 °F 82% 30.08 in 10.0 mi Calm Calm - N/A   Clear
11:54 PM 51.8 °F - 46.4 °F 82% 30.08 in 10.0 mi Calm Calm - N/A   Clear